Location: Unnamed
(33.0780°N, 97.0417°W)
Time: 19:50:23
(UTC-05:00)

Hubble Space Telescope - Pass Details

Date: 07 April 2021
Orbit: 535 x 539 km, 28.5° (Epoch: 25 July)

Event Time Altitude Azimuth Distance (km) Brightness Sun altitude
Exits shadow 05:41:48 37° 211° (SSW) 830 1.3 -18.2°
Maximum altitude 05:42:39 43° 178° (S) 752 1.3 -18.0°
Drops below altitude 10° 05:46:34 10° 106° (ESE) 1,779 4.2 -17.3°
Sets 05:48:54 0° 99° (E) 2,670 5.4 -16.8°
